Overview Statistics Trail Chart Weather Telemetry Raw packets
 

This is the latest recevied weather packets stored in our database for station/object BG5HLN-13. If no packets are shown the sender has not sent any weather packets the latest 10 day(s).

<< 46 47 48 49 50 51 52 >>
Time Temp. Humidity Pressure Rain* Wind** Luminosity Snow
1787901977 32.22° C 89% 1000 hPa 56.64 mm - - -
1787901377 31.67° C 90% 1000.1 hPa 56.64 mm - - -
1787900776 31.67° C 91% 1000.3 hPa 42.42 mm - - -
1787900176 31.11° C 92% 1000.2 hPa 14.99 mm - - -
1787899577 31.11° C 92% 1000.2 hPa 0 mm - - -
1787898976 31.11° C 91% 1000.2 hPa 0 mm - - -
1787898376 31.11° C 90% 1000.3 hPa 0 mm - - -
1787897776 31.11° C 90% 1000.6 hPa 0 mm - - -
1787897176 31.11° C 90% 1000.3 hPa 0 mm - - -
1787896576 31.67° C 88% 1000.2 hPa 0 mm - - -
1787895976 31.67° C 86% 1000.3 hPa 0 mm - - -
1787895376 32.22° C 86% 1000.2 hPa 0 mm - - -
1787894776 32.22° C 85% 1000.3 hPa 0 mm - - -
1787894176 32.78° C 84% 1000.3 hPa 0 mm - - -
1787893576 32.78° C 83% 1000.4 hPa 0 mm - - -
1787892976 33.33° C 82% 1000.6 hPa 0 mm - - -
1787891775 32.78° C 85% 1000.5 hPa 0 mm - - -
1787891175 32.78° C 86% 1000.6 hPa 0 mm - - -
1787890576 32.22° C 89% 1000.8 hPa 0 mm - - -
1787889975 32.22° C 88% 1001 hPa 0 mm - - -
1787889375 31.67° C 87% 1000.9 hPa 0 mm - - -
1787888776 31.67° C 86% 1000.8 hPa 0 mm - - -
1787888175 32.22° C 86% 1001 hPa 0 mm - - -
1787887575 31.67° C 88% 1001 hPa 0 mm - - -
1787886975 31.67° C 89% 1001 hPa 0 mm - - -

* Rain latest hour (hover to see other rain measurements)
** Current wind speed in m/s (hover to see current wind gust speed)